STARLINK-11203, 60117

Orbit data source: Space-Track

STARLINK-11203, 60117 is a payload satellite owned by SpaceX/Seattle (US) in LEO that was launched on Mon, 24 Jun 2024 UTC via an FALCON 9 launch vehicle from the Air Force Western Test Range (AFWTR). Payload-class satellites include a variety of spacecraft equipped with specific instruments for various scientific and technological missions. These include communications satellites like Starlink; space stations such as the ISS; scientific satellites like the Hubble; Earth observation satellites from companies like Planet Labs, Umbra, and HawkEye 360; GPS; miniature CubeSats for education and research; and military/defense satellites.

Loading next visibility...
Identifier
60117, 2024-118E
Orbit
LEO
Country
Flag of USUS
Related business
Manufacturer
SpaceX/Seattle
Mission
Operational Commercial Communications
Bus & Motor
STARLINK V2MD, Unknown motor
Mass
960 kg wet, ~910 kg dry
Launch date (UTC)
2024-06-24 (2 years ago)
Launch vehicle
FALCON 9
Launch site
Air Force Western Test Range (AFWTR)
Object type
Payload
Rocket body
Debris
Shape & HBR
Box + 2 Pan, 18.1 m
Radar Cross Section
36.964 m², Large (>1 m²)

Expand to show TLE details & history
Last TLE update: 5 hours ago

TLE from 5 hours ago
0 STARLINK-11203
1 60117U 24118E   26035.27303928  .00007578  00000-0  67335-4 0  9996
2 60117  53.1581  26.0818 0001243 108.7393 251.3760 15.69714784 92744
Epoch: 2026-02-04T06:33Z
TLE epoch observation values (Epoch: 2026-02-04T06:33:10.593Z)
Latitude
-0.00003°
Longitude
153.34565°
Altitude
360.895 km
Speed
7.694 km/s
True Right ascension
01h 44m 19s
True Declination
0° 00' 00"
Sunlit
Object was in daylight at epoch
Visualization orbit readout
Latitude
Unknown
Longitude
Unknown
Altitude
Unknown
Speed
Unknown
Apparent Right ascension
Unknown
Apparent Declination
Unknown
Sunlit
N/A
Visualization observer readout
Local Sidereal Time
13:53:08
Azimuth
Unknown
Elevation
Unknown
Doppler factor
Unknown
Orbital elements
Apogee altitude
360.812 km
Perigee altitude
359.137 km
Semi-major axis
6,738.111 km
Eccentricity
0.00012
Inclination
53.1581°
RAAN
26.0818°
Arg. of periapsis
108.7393°
True anomaly
251.3625°
Mean anomaly
251.376°
Eccentric anomaly
251.36925°
Mean motion
3.92406 °/min
Orbital period
91.74 mins
BSTAR
0.000067335
Loading maneuver chart data...
Computing Atmospheric mass density...
Loading historical data...
Loading historical data...
Loading historical data...
Loading historical data...
Loading historical data...
Loading historical data...
Loading historical data...

Documentation

Showing up to 5 results
|